Overview Statistics Trail Chart Weather Telemetry Raw packets
 

This is the latest recevied weather packets stored in our database for station/object K5BOU. If no packets are shown the sender has not sent any weather packets the latest 10 day(s).

<< 43 44 45 46 47 48 49 >>
Time Temp. Humidity Pressure Rain* Wind** Luminosity Snow
1788367617 31.11° C 79% 1013.6 hPa 0 mm - 326 W/m² -
1788367316 31.11° C 80% 1013.7 hPa 0 mm - 349 W/m² -
1788367012 31.11° C 83% 1013.7 hPa 0 mm - 369 W/m² -
1788366711 31.11° C 82% 1013.8 hPa 0 mm - 428 W/m² -
1788366410 31.11° C 84% 1013.7 hPa 0 mm - 521 W/m² -
1788366104 30.56° C 83% 1013.9 hPa 0 mm - 491 W/m² -
1788365800 30.56° C 84% 1013.9 hPa 0 mm - 551 W/m² -
1788365496 30.56° C 84% 1014 hPa 0 mm - 525 W/m² -
1788365192 30.56° C 84% 1013.9 hPa 0 mm - 287 W/m² -
1788364887 30.56° C 86% 1014 hPa 0 mm - 585 W/m² -
1788364585 30.56° C 87% 1013.9 hPa 0 mm - 609 W/m² -
1788364284 30.56° C 87% 1013.9 hPa 0 mm - 433 W/m² -
1788363979 30° C 88% 1013.9 hPa 0 mm - 642 W/m² -
1788363674 30° C 89% 1013.8 hPa 0 mm - 454 W/m² -
1788363373 29.44° C 89% 1013.9 hPa 0 mm - 394 W/m² -
1788363068 29.44° C 90% 1013.9 hPa 0 mm - 317 W/m² -
1788362765 29.44° C 91% 1013.8 hPa 0 mm - 346 W/m² -
1788362460 29.44° C 91% 1013.7 hPa 0 mm - 288 W/m² -
1788362156 28.89° C 92% 1013.8 hPa 0 mm - 347 W/m² -
1788361855 28.89° C 93% 1013.8 hPa 0 mm - 327 W/m² -
1788361550 28.89° C 94% 1013.8 hPa 0 mm - 213 W/m² -
1788361246 28.89° C 94% 1013.7 hPa 0 mm - 259 W/m² -
1788360941 28.33° C 95% 1013.6 hPa 0 mm - 229 W/m² -
1788360640 28.33° C 96% 1013.7 hPa 0 mm - 225 W/m² -
1788360337 28.33° C 97% 1013.8 hPa 0 mm - 236 W/m² -

* Rain latest hour (hover to see other rain measurements)
** Current wind speed in m/s (hover to see current wind gust speed)